Time,TemperatureF,DewpointF,PressureIn,WindDirection,WindDirectionDegrees,WindSpeedMPH,WindSpeedGustMPH,Humidity,HourlyPrecipIn,Conditions,Clouds,dailyrainin,SoftwareType,DateUTC
2013-02-18 00:01:00,66.0,62.0,30.17,North,5,0.0,-999.0,86,-99.99,,,-99.99,,2013-02-18 10:01:00,
2013-02-18 00:11:00,66.0,62.0,30.17,North,5,0.0,-999.0,86,-99.99,,,-99.99,,2013-02-18 10:11:00,
2013-02-18 00:21:00,65.0,61.0,30.16,NNW,337,0.0,-999.0,87,-99.99,,,-99.99,,2013-02-18 10:21:00,
2013-02-18 00:31:00,65.0,61.0,30.16,NW,316,0.0,-999.0,88,-99.99,,,-99.99,,2013-02-18 10:31:00,
2013-02-18 00:42:00,65.0,61.0,30.16,NW,316,0.0,-999.0,88,-99.99,,,-99.99,,2013-02-18 10:42:00,
2013-02-18 00:51:00,65.0,62.0,30.15,NW,305,0.0,-999.0,89,-99.99,,,-99.99,,2013-02-18 10:51:00,
2013-02-18 01:01:00,64.0,61.0,30.16,ENE,58,0.0,-999.0,89,-99.99,,,-99.99,,2013-02-18 11:01:00,
2013-02-18 01:11:00,64.0,61.0,30.16,ENE,58,0.0,-999.0,89,-99.99,,,-99.99,,2013-02-18 11:11:00,
2013-02-18 01:21:00,65.0,62.0,30.16,NE,49,0.0,-999.0,89,-99.99,,,-99.99,,2013-02-18 11:21:00,
2013-02-18 01:32:00,64.0,61.0,30.15,NE,49,0.0,-999.0,90,-99.99,,,-99.99,,2013-02-18 11:32:00,
2013-02-18 01:42:00,64.0,61.0,30.15,NE,49,0.0,-999.0,90,-99.99,,,-99.99,,2013-02-18 11:42:00,
2013-02-18 01:52:00,64.0,61.0,30.14,NNW,341,0.0,-999.0,90,-99.99,,,-99.99,,2013-02-18 11:52:00,
2013-02-18 02:01:00,64.0,61.0,30.14,NNW,345,0.0,-999.0,91,-99.99,,,-99.99,,2013-02-18 12:01:00,
2013-02-18 02:21:00,64.0,61.0,30.14,NNW,345,0.0,-999.0,91,-99.99,,,-99.99,,2013-02-18 12:21:00,
2013-02-18 02:42:00,64.0,61.0,30.13,NNW,345,0.0,-999.0,91,-99.99,,,-99.99,,2013-02-18 12:42:00,
2013-02-18 02:52:00,64.0,62.0,30.14,NNW,345,0.0,-999.0,92,-99.99,,,-99.99,,2013-02-18 12:52:00,
2013-02-18 03:02:00,64.0,62.0,30.14,NNW,345,0.0,-999.0,92,-99.99,,,-99.99,,2013-02-18 13:02:00,
2013-02-18 03:12:00,64.0,62.0,30.14,NNW,345,0.0,-999.0,92,-99.99,,,-99.99,,2013-02-18 13:12:00,
2013-02-18 03:22:00,63.0,61.0,30.12,NNW,345,0.0,-999.0,92,-99.99,,,-99.99,,2013-02-18 13:22:00,
2013-02-18 03:32:00,63.0,61.0,30.12,NNW,345,0.0,-999.0,92,-99.99,,,-99.99,,2013-02-18 13:32:00,
2013-02-18 03:42:00,63.0,61.0,30.12,NNW,345,0.0,-999.0,92,-99.99,,,-99.99,,2013-02-18 13:42:00,
2013-02-18 03:52:00,63.0,61.0,30.12,NNW,345,0.0,-999.0,92,-99.99,,,-99.99,,2013-02-18 13:52:00,
2013-02-18 04:02:00,63.0,61.0,30.11,NNW,345,0.0,-999.0,92,-99.99,,,-99.99,,2013-02-18 14:02:00,
2013-02-18 04:11:00,63.0,61.0,30.11,NNW,345,0.0,-999.0,92,-99.99,,,-99.99,,2013-02-18 14:11:00,
2013-02-18 04:21:00,63.0,61.0,30.10,NNW,345,0.0,-999.0,93,-99.99,,,-99.99,,2013-02-18 14:21:00,
2013-02-18 04:32:00,63.0,61.0,30.11,North,10,1.0,-999.0,93,-99.99,,,-99.99,,2013-02-18 14:32:00,
2013-02-18 04:52:00,63.0,61.0,30.11,NW,321,0.0,-999.0,93,-99.99,,,-99.99,,2013-02-18 14:52:00,
2013-02-18 05:01:00,63.0,61.0,30.11,NW,321,0.0,-999.0,93,-99.99,,,-99.99,,2013-02-18 15:01:00,
2013-02-18 05:11:00,63.0,61.0,30.11,NW,321,0.0,-999.0,93,-99.99,,,-99.99,,2013-02-18 15:11:00,
2013-02-18 05:21:00,63.0,61.0,30.11,NW,321,0.0,-999.0,93,-99.99,,,-99.99,,2013-02-18 15:21:00,
2013-02-18 05:31:00,63.0,61.0,30.12,NW,320,0.0,-999.0,93,-99.99,,,-99.99,,2013-02-18 15:31:00,
2013-02-18 05:42:00,63.0,61.0,30.12,NW,320,0.0,-999.0,93,-99.99,,,-99.99,,2013-02-18 15:42:00,
2013-02-18 05:51:00,63.0,61.0,30.12,North,5,0.0,-999.0,94,-99.99,,,-99.99,,2013-02-18 15:51:00,
2013-02-18 06:02:00,63.0,61.0,30.13,North,5,0.0,-999.0,93,-99.99,,,-99.99,,2013-02-18 16:02:00,
2013-02-18 06:11:00,63.0,61.0,30.13,North,5,0.0,-999.0,93,-99.99,,,-99.99,,2013-02-18 16:11:00,
2013-02-18 06:21:00,63.0,61.0,30.13,North,5,0.0,-999.0,94,-99.99,,,-99.99,,2013-02-18 16:21:00,
2013-02-18 06:32:00,63.0,61.0,30.13,North,5,0.0,-999.0,94,-99.99,,,-99.99,,2013-02-18 16:32:00,
2013-02-18 06:42:00,63.0,61.0,30.13,North,5,0.0,-999.0,94,-99.99,,,-99.99,,2013-02-18 16:42:00,
2013-02-18 06:51:00,62.0,60.0,30.14,North,5,0.0,-999.0,93,-99.99,,,-99.99,,2013-02-18 16:51:00,
2013-02-18 07:02:00,62.0,60.0,30.14,North,5,0.0,-999.0,94,-99.99,,,-99.99,,2013-02-18 17:02:00,
2013-02-18 07:11:00,62.0,60.0,30.14,North,5,0.0,-999.0,94,-99.99,,,-99.99,,2013-02-18 17:11:00,
2013-02-18 07:21:00,62.0,60.0,30.14,North,5,0.0,-999.0,94,-99.99,,,-99.99,,2013-02-18 17:21:00,
2013-02-18 07:32:00,63.0,61.0,30.14,NNE,16,1.0,-999.0,94,-99.99,,,-99.99,,2013-02-18 17:32:00,
2013-02-18 07:42:00,63.0,61.0,30.14,NNE,16,1.0,-999.0,94,-99.99,,,-99.99,,2013-02-18 17:42:00,
2013-02-18 07:52:00,63.0,61.0,30.15,NNE,16,0.0,-999.0,94,-99.99,,,-99.99,,2013-02-18 17:52:00,
2013-02-18 08:01:00,63.0,61.0,30.16,North,355,2.0,-999.0,94,-99.99,,,-99.99,,2013-02-18 18:01:00,
2013-02-18 08:11:00,63.0,61.0,30.16,North,355,2.0,-999.0,94,-99.99,,,-99.99,,2013-02-18 18:11:00,
2013-02-18 08:22:00,64.0,62.0,30.16,North,360,0.0,-999.0,94,-99.99,,,-99.99,,2013-02-18 18:22:00,
2013-02-18 08:32:00,65.0,63.0,30.16,North,360,0.0,-999.0,94,-99.99,,,-99.99,,2013-02-18 18:32:00,
2013-02-18 08:42:00,65.0,63.0,30.16,North,360,0.0,-999.0,94,-99.99,,,-99.99,,2013-02-18 18:42:00,
2013-02-18 08:52:00,64.0,62.0,30.17,North,355,2.0,-999.0,94,-99.99,,,-99.99,,2013-02-18 18:52:00,
2013-02-18 09:02:00,65.0,63.0,30.16,North,10,0.0,-999.0,94,-99.99,,,-99.99,,2013-02-18 19:02:00,
2013-02-18 09:12:00,65.0,63.0,30.16,North,10,0.0,-999.0,94,-99.99,,,-99.99,,2013-02-18 19:12:00,
2013-02-18 09:21:00,66.0,64.0,30.17,NNE,32,1.0,-999.0,94,-99.99,,,-99.99,,2013-02-18 19:21:00,
2013-02-18 09:32:00,66.0,64.0,30.17,North,11,2.0,-999.0,94,-99.99,,,-99.99,,2013-02-18 19:32:00,
2013-02-18 09:42:00,66.0,64.0,30.17,North,11,2.0,-999.0,94,-99.99,,,-99.99,,2013-02-18 19:42:00,
2013-02-18 09:51:00,66.0,64.0,30.17,NNE,13,2.0,-999.0,93,-99.99,,,-99.99,,2013-02-18 19:51:00,
2013-02-18 10:01:00,66.0,63.0,30.17,NNE,15,4.0,-999.0,91,-99.99,,,-99.99,,2013-02-18 20:01:00,
2013-02-18 10:12:00,66.0,63.0,30.17,NNE,15,4.0,-999.0,91,-99.99,,,-99.99,,2013-02-18 20:12:00,
2013-02-18 10:21:00,66.0,64.0,30.18,East,81,2.0,-999.0,93,-99.99,,,-99.99,,2013-02-18 20:21:00,
2013-02-18 10:32:00,66.0,64.0,30.18,NNE,23,1.0,-999.0,92,-99.99,,,-99.99,,2013-02-18 20:32:00,
2013-02-18 10:42:00,66.0,64.0,30.18,NNE,23,1.0,-999.0,92,-99.99,,,-99.99,,2013-02-18 20:42:00,
2013-02-18 10:52:00,66.0,64.0,30.18,NE,40,1.0,-999.0,92,-99.99,,,-99.99,,2013-02-18 20:52:00,
2013-02-18 11:02:00,67.0,64.0,30.17,NNE,16,1.0,-999.0,90,-99.99,,,-99.99,,2013-02-18 21:02:00,
2013-02-18 11:11:00,67.0,64.0,30.17,NNE,16,1.0,-999.0,90,-99.99,,,-99.99,,2013-02-18 21:11:00,
2013-02-18 11:21:00,67.0,64.0,30.17,North,5,3.0,-999.0,89,-99.99,,,-99.99,,2013-02-18 21:21:00,
2013-02-18 11:32:00,67.0,63.0,30.16,NNW,339,2.0,-999.0,88,-99.99,,,-99.99,,2013-02-18 21:32:00,
2013-02-18 11:42:00,67.0,63.0,30.16,NNW,339,2.0,-999.0,88,-99.99,,,-99.99,,2013-02-18 21:42:00,
2013-02-18 11:51:00,66.0,62.0,30.16,NE,38,3.0,-999.0,87,-99.99,,,-99.99,,2013-02-18 21:51:00,
2013-02-18 12:01:00,65.0,62.0,30.16,NNE,26,3.0,-999.0,91,-99.99,,,-99.99,,2013-02-18 22:01:00,
2013-02-18 12:11:00,65.0,63.0,30.16,East,84,2.0,-999.0,92,-99.99,,,-99.99,,2013-02-18 22:11:00,
2013-02-18 12:32:00,66.0,64.0,30.15,NE,35,1.0,-999.0,93,-99.99,,,-99.99,,2013-02-18 22:32:00,
2013-02-18 12:42:00,66.0,64.0,30.15,NE,35,1.0,-999.0,93,-99.99,,,-99.99,,2013-02-18 22:42:00,
2013-02-18 12:52:00,66.0,64.0,30.14,NE,54,2.0,-999.0,93,-99.99,,,-99.99,,2013-02-18 22:52:00,
2013-02-18 13:02:00,66.0,64.0,30.14,NE,45,2.0,-999.0,92,-99.99,,,-99.99,,2013-02-18 23:02:00,
2013-02-18 13:11:00,66.0,64.0,30.14,NE,45,2.0,-999.0,92,-99.99,,,-99.99,,2013-02-18 23:11:00,
2013-02-18 13:21:00,67.0,64.0,30.13,ENE,65,2.0,-999.0,91,-99.99,,,-99.99,,2013-02-18 23:21:00,
2013-02-18 13:32:00,69.0,65.0,30.12,NNE,21,4.0,-999.0,86,-99.99,,,-99.99,,2013-02-18 23:32:00,
2013-02-18 13:42:00,69.0,65.0,30.12,NNE,21,4.0,-999.0,86,-99.99,,,-99.99,,2013-02-18 23:42:00,
2013-02-18 13:52:00,66.0,62.0,30.12,NNE,24,4.0,-999.0,88,-99.99,,,-99.99,,2013-02-18 23:52:00,
2013-02-18 14:02:00,66.0,63.0,30.11,NNW,342,1.0,-999.0,89,-99.99,,,-99.99,,2013-02-19 00:02:00,
2013-02-18 14:12:00,66.0,63.0,30.11,NNW,342,1.0,-999.0,89,-99.99,,,-99.99,,2013-02-19 00:12:00,
2013-02-18 14:21:00,67.0,64.0,30.11,NNE,15,0.0,-999.0,90,-99.99,,,-99.99,,2013-02-19 00:21:00,
2013-02-18 14:32:00,67.0,64.0,30.10,NNE,30,2.0,-999.0,89,-99.99,,,-99.99,,2013-02-19 00:32:00,
2013-02-18 14:42:00,67.0,64.0,30.10,NNE,30,2.0,-999.0,89,-99.99,,,-99.99,,2013-02-19 00:42:00,
2013-02-18 14:52:00,67.0,63.0,30.10,East,96,3.0,-999.0,87,-99.99,,,-99.99,,2013-02-19 00:52:00,
2013-02-18 15:02:00,67.0,63.0,30.09,North,355,2.0,-999.0,86,-99.99,,,-99.99,,2013-02-19 01:02:00,
2013-02-18 15:22:00,67.0,63.0,30.09,NNW,340,1.0,-999.0,86,-99.99,,,-99.99,,2013-02-19 01:22:00,
2013-02-18 15:32:00,67.0,63.0,30.09,ENE,69,2.0,-999.0,87,-99.99,,,-99.99,,2013-02-19 01:32:00,
2013-02-18 15:42:00,67.0,63.0,30.09,ENE,69,2.0,-999.0,87,-99.99,,,-99.99,,2013-02-19 01:42:00,
2013-02-18 15:53:00,66.0,61.0,30.09,NE,34,4.0,-999.0,85,-99.99,,,-99.99,,2013-02-19 01:53:00,
2013-02-18 16:02:00,66.0,62.0,30.08,NNW,337,2.0,-999.0,86,-99.99,,,-99.99,,2013-02-19 02:02:00,
2013-02-18 16:12:00,66.0,62.0,30.08,NNW,337,2.0,-999.0,86,-99.99,,,-99.99,,2013-02-19 02:12:00,
2013-02-18 16:21:00,67.0,62.0,30.08,NE,44,2.0,-999.0,85,-99.99,,,-99.99,,2013-02-19 02:21:00,
2013-02-18 16:33:00,68.0,62.0,30.09,NNE,23,4.0,-999.0,80,-99.99,,,-99.99,,2013-02-19 02:33:00,
2013-02-18 16:42:00,68.0,62.0,30.09,NNE,23,4.0,-999.0,80,-99.99,,,-99.99,,2013-02-19 02:42:00,
2013-02-18 16:52:00,69.0,61.0,30.09,NNE,28,4.0,-999.0,76,-99.99,,,-99.99,,2013-02-19 02:52:00,
2013-02-18 17:03:00,69.0,62.0,30.09,North,355,2.0,-999.0,79,-99.99,,,-99.99,,2013-02-19 03:03:00,
2013-02-18 17:13:00,69.0,62.0,30.09,North,355,2.0,-999.0,79,-99.99,,,-99.99,,2013-02-19 03:13:00,
2013-02-18 17:21:00,69.0,62.0,30.09,NNE,17,3.0,-999.0,79,-99.99,,,-99.99,,2013-02-19 03:21:00,
2013-02-18 17:32:00,68.0,61.0,30.09,NNE,13,2.0,-999.0,79,-99.99,,,-99.99,,2013-02-19 03:32:00,
2013-02-18 17:43:00,68.0,61.0,30.09,NNE,13,2.0,-999.0,79,-99.99,,,-99.99,,2013-02-19 03:43:00,
2013-02-18 17:52:00,68.0,61.0,30.09,NNE,13,2.0,-999.0,79,-99.99,,,-99.99,,2013-02-19 03:52:00,
2013-02-18 18:02:00,68.0,61.0,30.10,North,9,2.0,-999.0,78,-99.99,,,-99.99,,2013-02-19 04:02:00,
2013-02-18 18:13:00,68.0,61.0,30.10,North,9,2.0,-999.0,78,-99.99,,,-99.99,,2013-02-19 04:13:00,
2013-02-18 18:22:00,67.0,61.0,30.10,NW,304,3.0,-999.0,80,-99.99,,,-99.99,,2013-02-19 04:22:00,
2013-02-18 18:32:00,65.0,60.0,30.11,NE,40,3.0,-999.0,85,-99.99,,,-99.99,,2013-02-19 04:32:00,
2013-02-18 18:42:00,65.0,60.0,30.11,NE,40,3.0,-999.0,85,-99.99,,,-99.99,,2013-02-19 04:42:00,
2013-02-18 18:52:00,64.0,61.0,30.11,East,86,3.0,-999.0,89,-99.99,,,-99.99,,2013-02-19 04:52:00,
2013-02-18 19:01:00,64.0,60.0,30.11,NNE,17,2.0,-999.0,88,-99.99,,,-99.99,,2013-02-19 05:01:00,
2013-02-18 19:12:00,64.0,60.0,30.11,NNE,17,2.0,-999.0,88,-99.99,,,-99.99,,2013-02-19 05:12:00,
2013-02-18 19:22:00,64.0,60.0,30.11,NNE,17,2.0,-999.0,88,-99.99,,,-99.99,,2013-02-19 05:22:00,
2013-02-18 19:32:00,64.0,60.0,30.11,NNE,17,1.0,-999.0,88,-99.99,,,-99.99,,2013-02-19 05:32:00,
2013-02-18 19:43:00,64.0,60.0,30.11,NNE,17,1.0,-999.0,88,-99.99,,,-99.99,,2013-02-19 05:43:00,
2013-02-18 19:52:00,65.0,61.0,30.12,NNE,25,1.0,-999.0,86,-99.99,,,-99.99,,2013-02-19 05:52:00,
2013-02-18 20:02:00,66.0,60.0,30.13,North,360,4.0,-999.0,82,-99.99,,,-99.99,,2013-02-19 06:02:00,
2013-02-18 20:11:00,66.0,60.0,30.13,North,360,4.0,-999.0,82,-99.99,,,-99.99,,2013-02-19 06:11:00,
2013-02-18 20:21:00,66.0,59.0,30.14,NNE,28,2.0,-999.0,79,-99.99,,,-99.99,,2013-02-19 06:21:00,
2013-02-18 20:32:00,66.0,59.0,30.14,NE,49,2.0,-999.0,78,-99.99,,,-99.99,,2013-02-19 06:32:00,
2013-02-18 20:42:00,66.0,59.0,30.14,NE,49,2.0,-999.0,78,-99.99,,,-99.99,,2013-02-19 06:42:00,
2013-02-18 20:52:00,66.0,59.0,30.15,NNE,24,1.0,-999.0,77,-99.99,,,-99.99,,2013-02-19 06:52:00,
2013-02-18 21:01:00,66.0,59.0,30.15,North,10,1.0,-999.0,78,-99.99,,,-99.99,,2013-02-19 07:01:00,
2013-02-18 21:11:00,66.0,59.0,30.15,North,10,1.0,-999.0,78,-99.99,,,-99.99,,2013-02-19 07:11:00,
2013-02-18 21:21:00,66.0,59.0,30.16,NNE,16,1.0,-999.0,77,-99.99,,,-99.99,,2013-02-19 07:21:00,
2013-02-18 21:32:00,66.0,59.0,30.16,East,83,0.0,-999.0,77,-99.99,,,-99.99,,2013-02-19 07:32:00,
2013-02-18 21:42:00,66.0,59.0,30.16,East,83,0.0,-999.0,77,-99.99,,,-99.99,,2013-02-19 07:42:00,
2013-02-18 21:51:00,66.0,59.0,30.16,NNE,21,0.0,-999.0,79,-99.99,,,-99.99,,2013-02-19 07:51:00,
2013-02-18 22:01:00,66.0,60.0,30.16,NNE,22,0.0,-999.0,80,-99.99,,,-99.99,,2013-02-19 08:01:00,
2013-02-18 22:11:00,66.0,60.0,30.16,NNE,22,0.0,-999.0,80,-99.99,,,-99.99,,2013-02-19 08:11:00,
2013-02-18 22:21:00,65.0,59.0,30.16,North,5,0.0,-999.0,81,-99.99,,,-99.99,,2013-02-19 08:21:00,
2013-02-18 22:31:00,64.0,59.0,30.16,North,5,0.0,-999.0,85,-99.99,,,-99.99,,2013-02-19 08:31:00,
2013-02-18 22:42:00,64.0,59.0,30.16,North,5,0.0,-999.0,85,-99.99,,,-99.99,,2013-02-19 08:42:00,
2013-02-18 22:52:00,63.0,59.0,30.16,North,5,0.0,-999.0,87,-99.99,,,-99.99,,2013-02-19 08:52:00,
2013-02-18 23:01:00,62.0,59.0,30.16,North,5,0.0,-999.0,89,-99.99,,,-99.99,,2013-02-19 09:01:00,
2013-02-18 23:11:00,62.0,59.0,30.16,North,5,0.0,-999.0,89,-99.99,,,-99.99,,2013-02-19 09:11:00,
2013-02-18 23:21:00,62.0,59.0,30.16,North,5,0.0,-999.0,91,-99.99,,,-99.99,,2013-02-19 09:21:00,
2013-02-18 23:31:00,62.0,59.0,30.16,North,5,0.0,-999.0,91,-99.99,,,-99.99,,2013-02-19 09:31:00,
2013-02-18 23:41:00,62.0,59.0,30.16,North,5,0.0,-999.0,91,-99.99,,,-99.99,,2013-02-19 09:41:00,
2013-02-18 23:52:00,62.0,59.0,30.16,North,5,0.0,-999.0,91,-99.99,,,-99.99,,2013-02-19 09:52:00,